Regional Weather Roundup
Issued by NWS Jackson, KY

Home | Current Version | Previous Version | Text Only | Print | Product List | Glossary On
Versions: 1 2 3 4 5 6 7 8 9 10 11 12 13 14 15 16 17 18 19 20 21 22 23 24 25 26 27 28
000
ASUS43 KJKL 260810
RWRJKL

EAST KENTUCKY HOURLY WEATHER ROUNDUP
NATIONAL WEATHER SERVICE JACKSON KY
400 AM EDT THU APR 26 2018

NOTE: "FAIR" INDICATES FEW OR NO CLOUDS BELOW 12,000 FEET WITH
NO SIGNIFICANT WEATHER AND/OR OBSTRUCTIONS TO VISIBILITY.

* THESE REPORTS ARE NOT UNDER NWS QUALITY CONTROL AND MAY NOT
  REPORT WEATHER SUCH AS PRECIPITATION AND FOG.

KYZ079-080-083-085-087-088-110-112-115-119-120-260900
...EASTERN KENTUCKY...

CITY           SKY/WX    TMP DP  RH WIND       PRES   REMARKS
JACKSON        MOCLDY    50  49  96 SW3       29.90S FOG
LONDON         FOG       47  46  97 CALM      29.90S VSB 1/2
SOMERSET*      MOCLDY    46  46 100 CALM      29.90S FOG
WILLIAMSBURG*  CLOUDY    48  48 100 CALM      29.90S VSB 1/4
MIDDLESBORO*   CLOUDY    49  49 100 CALM      29.92S FOG
HARLAN APT*    CLOUDY    49  49 100 CALM      29.91S VSB 1/4
PIKE CO APT*   FOG       48  48 100 CALM      29.90S VSB 1/4
BIG SANDY APT*   N/A     48  48 100 CALM      29.90S FOG
MOREHEAD APT*  CLOUDY    48  46  93 CALM      29.90F
ASHLAND*       MOCLDY    46  46 100 CALM      29.90S
$$

KYZ035-036-041-042-044-050-067-078-099-260900
...CENTRAL KENTUCKY...

CITY           SKY/WX    TMP DP  RH WIND       PRES   REMARKS
MT STERLING*     N/A     46  46 100 NW5       29.90F
FLEMING/MASON*   N/A     48  48 100 NW3       29.90S FOG
DANVILLE*        N/A     46  46 100 CALM      29.90F
LEXINGTON        N/A     50  42  74 NE6       29.89F
FRANKFORT        N/A     51  43  74 N3        29.89S
LOUISVILLE     CLOUDY    53  37  54 N8        29.90F
LEBANON*         N/A     54  46  76 CALM      29.89S
GLASGOW*         N/A     53  49  87 E3        29.87F
BOWLING GREEN    N/A     54  52  93 CALM      29.86F
$$

KYZ091>093-OHZ055-061-077-WVZ005-015-034-035-042-260900
...SOUTHERN OHIO/WEST VIRGINIA...

CITY           SKY/WX    TMP DP  RH WIND       PRES   REMARKS
COVINGTON      CLOUDY    47  33  58 N6        29.89F
COLUMBUS         N/A     45  40  82 E5        29.90S
DAYTON         MOCLDY    41  34  76 N3        29.91S
WILMINGTON       N/A     47  36  65 NW6       29.89F
HUNTINGTON     FOG       46  43  89 CALM      29.89S VSB 1/4
CHARLESTON     FOG       46  46 100 CALM      29.89S VSB 1/2
PINEVILLE*       N/A     44  43  97 MISG      29.95S FOG
BECKLEY          N/A     44  43  96 CALM      29.89S
BLUEFIELD        N/A     44  41  89 W3        29.90S
LOGAN CO APT*  FOG       48  48 100 CALM      29.90S VSB<1/4
$$

VAZ002-007-008-TNZ017-027-036-066-071-260900
...SOUTHWEST VIRGINIA/EAST TENNESSEE...

CITY           SKY/WX    TMP DP  RH WIND       PRES   REMARKS
WISE*          CLOUDY    46  46 100 CALM      29.92S FOG
JONESVILLE*      N/A     48  48 100 CALM      29.93F
ABINGDON*      MOCLDY    52  48  85 CALM      29.91F
BRISTOL        CLOUDY    52  47  83 N3        29.91F
MORRISTOWN*    MOSUNNY   52  52 100 CALM      29.89F
SEVIERVILLE*   SUNNY     52  50  93 NE3       29.89F
KNOXVILLE      CLOUDY    51  51 100 NE5       29.88F
LAFOLLETTE*    MOSUNNY   50  50 100 CALM      29.93F
OAK RIDGE      MOCLDY    51  51 100 CALM      29.90F FOG
CROSSVILLE       N/A     48  47  96 CALM      29.90S
NASHVILLE        N/A     58  51  78 CALM      29.86F
$$

...KEY TO REMARKS...
VSB - VISIBILITY IN MILES
WCI - WIND CHILL INDEX
HX  - HEAT INDEX

$$




USA.gov is the U.S. government's official web portal to all federal, state and local government web resources and services.